[[{"header":{"parameterUnit":"m.s-1","parameterCategory":1,"la1":30.2991,"la2":30.254,"lo1":-89.0895,"lo2":-89.0444,"dy":0.0017,"dx":0.0017,"nx":28,"ny":28,"refTime":"2025-09-04T09:00:00:Z","depth":0,"parameterNumber":2,"parameterNumberName":"U-component_of_WINDS"},"data":[0,0,0,0,0,0,0,0,0,0,0,0,0,0,0,0,0,0,0,0,0,0,0,0,0,0,0,0,0,0,0,0,0,0,0,0,0,0,0,0,0,0,0,0,0,0,0,0,0,0,0,0,0,0,0,0,0,0,-0.1059,-0.1058,0,-0.1006,-0.1005,-0.1005,-0.0971,-0.097,-0.097,-0.097,-0.0917,-0.0916,-0.0915,0,0,0,0,0,0,0,0,0,0,0,0,0,-0.1132,-0.1131,-0.1059,-0.1058,-0.1057,-0.1006,-0.1005,-0.1004,-0.0971,-0.097,-0.097,-0.097,-0.0918,-0.0916,-0.0915,0,0,0,0,0,0,0,0,0,0,0,0,0,-0.1092,-0.1131,-0.1059,-0.1034,-0.1032,-0.1006,-0.1005,-0.1004,-0.0971,-0.097,-0.097,-0.097,-0.0918,-0.0916,-0.0914,-0.091,0,0,-0.0909,-0.0908,0,0,0,0,0,0,0,0,-0.1094,-0.1089,-0.1039,-0.1036,-0.1033,-0.0994,-0.1012,-0.0973,-0.0971,-0.0994,-0.097,-0.097,-0.0943,-0.0939,-0.093,-0.0907,-0.0905,-0.0909,-0.0908,-0.0907,-0.0906,0,0,0,0,0,0,0,-0.1097,-0.1092,-0.1038,-0.1038,-0.1034,-0.1027,-0.102,-0.1004,-0.0971,-0.0992,-0.0989,-0.0983,-0.0942,-0.0932,-0.0929,-0.0904,-0.0909,-0.0907,-0.0906,-0.0905,-0.0875,-0.0876,0,0,0,0,0,0,-0.1104,-0.1094,-0.104,-0.1036,-0.1063,-0.1025,-0.1019,-0.1007,-0.0971,-0.0965,-0.0984,-0.0982,-0.0935,-0.0931,-0.0927,-0.0919,-0.0907,-0.0905,-0.0904,-0.0875,-0.0876,-0.0876,0,0,0,0,0,0,-0.1105,-0.1099,-0.1042,-0.1064,-0.1056,-0.1025,-0.1012,-0.1006,-0.0997,-0.0965,-0.0959,-0.098,-0.0935,-0.0929,-0.0914,-0.0917,-0.0904,-0.0903,-0.0875,-0.0875,-0.0876,-0.0904,0,0,0,0,0,0,-0.1108,-0.11,-0.1097,-0.1065,-0.1055,-0.103,-0.1012,-0.1005,-0.0993,-0.0991,-0.096,-0.0954,-0.0934,-0.0917,-0.0912,-0.0914,-0.0901,-0.0874,-0.0875,-0.0876,-0.0903,-0.0906,-0.0908,0,0,0,0,0,-0.111,-0.1108,-0.1097,-0.1091,-0.1051,-0.103,-0.1025,-0.1001,-0.0994,-0.0991,-0.0971,-0.0955,-0.0917,-0.0916,-0.091,-0.0912,-0.0874,-0.0875,-0.0875,-0.0902,-0.0905,-0.0908,0,0,0,0,0,0,-0.1142,-0.1103,-0.1091,-0.1078,-0.1057,-0.1024,-0.102,-0.1005,-0.0987,-0.0985,-0.0957,-0.0951,-0.0939,-0.0923,-0.0923,-0.0905,-0.0894,-0.0894,-0.0916,-0.0919,-0.0921,-0.0925,-0.09,0,0,0,0,0,-0.1147,-0.1133,-0.1099,-0.1091,-0.1081,-0.1053,-0.1042,-0.1026,-0.1004,-0.0995,-0.0974,-0.0954,-0.0937,-0.0927,-0.091,-0.09,-0.0894,-0.0899,-0.0901,-0.0903,-0.0904,-0.0898,-0.09,-0.0878,-0.0878,-0.0878,0,0,-0.1159,-0.1135,-0.1128,-0.1097,-0.1079,-0.1065,-0.1046,-0.1031,-0.1021,-0.0993,-0.0978,-0.0962,-0.0937,-0.0925,-0.0919,-0.0912,-0.0908,-0.0904,-0.0906,-0.0905,-0.0899,-0.0901,-0.0903,-0.0878,-0.0878,-0.0878,0,0,-0.1172,-0.1152,-0.1143,-0.1126,-0.1099,-0.108,-0.1078,-0.1047,-0.1035,-0.1019,-0.0998,-0.0986,-0.0958,-0.0942,-0.093,-0.0937,-0.0922,-0.0932,-0.0946,-0.0941,-0.0942,-0.0944,-0.0947,-0.0949,-0.0932,-0.0933,-0.0933,0,-0.1189,-0.1167,-0.1141,-0.1128,-0.1115,-0.1089,-0.108,-0.1065,-0.1034,-0.1026,-0.1019,-0.0984,-0.0965,-0.095,-0.0952,-0.0942,-0.094,-0.0936,-0.0944,-0.0945,-0.0946,-0.0949,-0.0951,-0.0934,-0.0934,-0.0934,-0.0934,0,-0.119,-0.1174,-0.117,-0.1141,-0.1128,-0.1117,-0.109,-0.108,-0.1065,-0.1047,-0.1032,-0.1009,-0.0987,-0.0982,-0.0967,-0.0964,-0.0961,-0.0949,-0.0937,-0.095,-0.0953,-0.0954,-0.0936,-0.0936,-0.0935,-0.0935,0,0,-0.1222,-0.1178,-0.1177,-0.1164,-0.1133,-0.1121,-0.1109,-0.1088,-0.108,-0.106,-0.105,-0.1027,-0.1016,-0.1003,-0.0986,-0.0981,-0.099,-0.097,-0.0969,-0.0976,-0.0986,-0.0996,-0.0998,-0.098,-0.098,-0.098,-0.0989,0,-0.1231,-0.1208,-0.1184,-0.117,-0.1157,-0.1131,-0.1121,-0.1102,-0.1085,-0.1071,-0.1052,-0.1037,-0.1023,-0.1015,-0.101,-0.099,-0.0992,-0.0989,-0.0971,-0.0971,-0.0979,-0.0999,-0.1009,-0.1018,-0.0989,-0.099,-0.099,0,-0.1239,-0.1219,-0.1204,-0.1174,-0.1168,-0.1159,-0.1138,-0.1124,-0.1102,-0.109,-0.1075,-0.1057,-0.1044,-0.1033,-0.1016,-0.1015,-0.1006,-0.0995,-0.0995,-0.0993,-0.0982,-0.0998,-0.1021,-0.1023,-0.0991,-0.0991,-0.0991,0,-0.1265,-0.1235,-0.1222,-0.1211,-0.1176,-0.1171,-0.1156,-0.1133,-0.1122,-0.1103,-0.1096,-0.1076,-0.1066,-0.1051,-0.1029,-0.1023,-0.1014,-0.1001,-0.1005,-0.1005,-0.1005,-0.1005,-0.1027,-0.0998,-0.0997,-0.0997,-0.0997,0,-0.1278,-0.127,-0.1233,-0.1225,-0.1216,-0.1189,-0.118,-0.1163,-0.1143,-0.1132,-0.1109,-0.1099,-0.107,-0.1057,-0.1039,-0.1028,-0.1023,-0.1013,-0.1009,-0.1016,-0.1017,-0.1011,-0.101,-0.0998,-0.0998,-0.0998,-0.0998,0,-0.1306,-0.1281,-0.1265,-0.1233,-0.1225,-0.1219,-0.1192,-0.1184,-0.1166,-0.1152,-0.1148,-0.1119,-0.1103,-0.1078,-0.1055,-0.1043,-0.1035,-0.1027,-0.1042,-0.104,-0.1045,-0.1045,-0.1064,-0.1065,-0.1035,-0.1035,-0.1035,0,-0.1317,-0.131,-0.1277,-0.1267,-0.1253,-0.1239,-0.1227,-0.12,-0.1189,-0.1163,-0.1158,-0.114,-0.1124,-0.1099,-0.1077,-0.1059,-0.1051,-0.1058,-0.1048,-0.1055,-0.1052,-0.1053,-0.1053,-0.1061,-0.1062,-0.1062,-0.1062,0,-0.1338,-0.1326,-0.131,-0.1289,-0.1276,-0.1259,-0.124,-0.1234,-0.1204,-0.1193,-0.1175,-0.1163,-0.1139,-0.1121,-0.11,-0.1086,-0.107,-0.1066,-0.1066,-0.1073,-0.1083,-0.1079,-0.105,-0.1066,-0.1065,-0.1065,-0.1065,-0.1065,-0.1359,-0.1351,-0.1327,-0.131,-0.1293,-0.1277,-0.1268,-0.1248,-0.1233,-0.1211,-0.1196,-0.118,-0.1158,-0.1128,-0.1114,-0.1102,-0.1095,-0.1095,-0.1095,-0.1095,-0.1098,-0.1084,-0.1098,-0.1097,-0.1097,-0.1097,-0.1097,0,-0.138,-0.1363,-0.1347,-0.1322,-0.1309,-0.1294,-0.1273,-0.1263,-0.1249,-0.1229,-0.1214,-0.1195,-0.1178,-0.1154,-0.1135,-0.113,-0.1122,-0.1126,-0.1127,-0.1124,-0.1105,-0.1107,-0.1133,-0.1133,-0.1133,-0.1133,-0.1133,-0.1132,-0.139,-0.1377,-0.1362,-0.1342,-0.1325,-0.1308,-0.1298,-0.1283,-0.1267,-0.1246,-0.1232,-0.1216,-0.1195,-0.1175,-0.1159,-0.1152,-0.1147,-0.1153,-0.1145,-0.1128,-0.1125,-0.1122,-0.1124,-0.1152,-0.1152,-0.1164,-0.1165,-0.1165]},{"header":{"parameterUnit":"m.s-1","parameterCategory":1,"la1":30.2991,"la2":30.254,"lo1":-89.0895,"lo2":-89.0444,"dy":0.0017,"dx":0.0017,"nx":28,"ny":28,"refTime":"2025-09-04T09:00:00:Z","depth":0,"parameterNumber":3,"parameterNumberName":"V-component_of_WINDS"},"data":[0,0,0,0,0,0,0,0,0,0,0,0,0,0,0,0,0,0,0,0,0,0,0,0,0,0,0,0,0,0,0,0,0,0,0,0,0,0,0,0,0,0,0,0,0,0,0,0,0,0,0,0,0,0,0,0,0,0,4.5128,4.5128,0,4.5122,4.5122,4.5122,4.5081,4.508,4.5079,4.5078,4.5072,4.5072,4.5073,0,0,0,0,0,0,0,0,0,0,0,0,0,4.5105,4.5106,4.5128,4.5128,4.5128,4.5122,4.5122,4.5122,4.5081,4.508,4.5078,4.5077,4.5071,4.5072,4.5073,0,0,0,0,0,0,0,0,0,0,0,0,0,4.5109,4.5106,4.5128,4.5107,4.5105,4.5122,4.5122,4.5122,4.5081,4.508,4.5078,4.5077,4.5071,4.5072,4.5073,4.511,0,0,4.5077,4.5077,0,0,0,0,0,0,0,0,4.5109,4.511,4.511,4.5108,4.5106,4.5101,4.5111,4.5118,4.5082,4.509,4.5078,4.5076,4.5082,4.5083,4.5085,4.511,4.511,4.5077,4.5078,4.5078,4.5078,0,0,0,0,0,0,0,4.5108,4.511,4.5126,4.511,4.5108,4.5098,4.5097,4.5112,4.5095,4.5089,4.5086,4.5086,4.5081,4.5084,4.5084,4.511,4.5077,4.5078,4.5079,4.5079,4.5165,4.5166,0,0,0,0,0,0,4.5111,4.511,4.5126,4.5125,4.5104,4.5099,4.5098,4.5104,4.5095,4.5092,4.5087,4.5084,4.5082,4.5083,4.5084,4.5126,4.5078,4.5079,4.508,4.5163,4.5165,4.5167,0,0,0,0,0,0,4.5111,4.5113,4.5126,4.5117,4.5118,4.5101,4.5108,4.5105,4.5107,4.5093,4.509,4.5093,4.5081,4.5082,4.5104,4.5125,4.508,4.5081,4.5161,4.5164,4.5166,4.521,0,0,0,0,0,0,4.511,4.5113,4.5127,4.5117,4.5118,4.5146,4.511,4.5106,4.5109,4.5105,4.5098,4.5095,4.508,4.5102,4.5105,4.5126,4.5082,4.5159,4.5162,4.5165,4.5207,4.5214,4.522,0,0,0,0,0,4.511,4.514,4.5128,4.513,4.5135,4.5147,4.5148,4.513,4.5111,4.5124,4.5116,4.5095,4.5123,4.5105,4.5108,4.5129,4.5158,4.5161,4.5165,4.5204,4.5212,4.522,0,0,0,0,0,0,4.5152,4.5138,4.5124,4.5152,4.5151,4.514,4.5157,4.514,4.5144,4.514,4.5118,4.5117,4.5142,4.5138,4.5118,4.5164,4.5137,4.5141,4.5165,4.5173,4.518,4.518,4.5083,0,0,0,0,0,4.5164,4.5176,4.5163,4.5189,4.5189,4.5173,4.5178,4.5165,4.5163,4.5162,4.5155,4.5154,4.5162,4.5168,4.5175,4.5207,4.5204,4.5223,4.5229,4.5235,4.5238,4.5254,4.5262,4.5178,4.5178,4.5178,0,0,4.519,4.5184,4.5193,4.5197,4.5195,4.5207,4.5173,4.5187,4.5196,4.5164,4.5183,4.5179,4.5176,4.5203,4.5214,4.52,4.5261,4.5239,4.5244,4.5244,4.5258,4.5266,4.5273,4.5181,4.518,4.518,0,0,4.5243,4.524,4.5261,4.5259,4.5256,4.5246,4.5251,4.5243,4.5238,4.5258,4.5234,4.5244,4.5259,4.5258,4.5259,4.5313,4.5294,4.5316,4.535,4.5365,4.5372,4.5378,4.5396,4.5402,4.532,4.532,4.532,0,4.5276,4.5292,4.5274,4.5289,4.5292,4.5264,4.5285,4.5285,4.5284,4.5286,4.5271,4.5289,4.5285,4.5311,4.5324,4.5327,4.5332,4.5316,4.5373,4.5378,4.5383,4.54,4.5407,4.5323,4.5322,4.5322,4.5322,0,4.5332,4.5344,4.5361,4.5361,4.5366,4.5384,4.5368,4.5376,4.5362,4.5354,4.5374,4.5369,4.5374,4.5379,4.5367,4.5403,4.5395,4.5376,4.5348,4.5394,4.5409,4.5416,4.5326,4.5325,4.5325,4.5324,0,0,4.541,4.54,4.5406,4.5406,4.5401,4.541,4.5427,4.5432,4.5438,4.5439,4.5452,4.5466,4.5449,4.5451,4.5438,4.5452,4.5493,4.5432,4.5431,4.5442,4.5533,4.5545,4.5553,4.5482,4.5483,4.5484,4.5532,0,4.5459,4.5487,4.5471,4.5502,4.5512,4.5487,4.5502,4.55,4.5493,4.5501,4.5493,4.5503,4.548,4.5481,4.5494,4.5486,4.5511,4.5482,4.5493,4.5494,4.5493,4.5561,4.5574,4.562,4.5538,4.5539,4.554,0,4.552,4.5524,4.5555,4.5548,4.5552,4.5565,4.5568,4.5577,4.5575,4.5569,4.5571,4.5555,4.5571,4.5545,4.5567,4.5547,4.5551,4.5548,4.5549,4.5548,4.5518,4.556,4.5635,4.5641,4.555,4.5549,4.5548,0,4.5572,4.5585,4.5605,4.5605,4.5598,4.5608,4.5605,4.5602,4.5606,4.5609,4.5612,4.5617,4.562,4.5624,4.561,4.5592,4.5633,4.5606,4.5628,4.5628,4.5636,4.5635,4.571,4.5642,4.5642,4.5642,4.5641,0,4.5628,4.5648,4.5628,4.564,4.5661,4.5644,4.5665,4.566,4.5658,4.5668,4.5648,4.5658,4.5639,4.5648,4.5637,4.5657,4.5658,4.5653,4.565,4.5654,4.5654,4.5655,4.5651,4.5643,4.5643,4.5643,4.5642,0,4.5688,4.5676,4.5696,4.5687,4.5686,4.5702,4.5695,4.5706,4.5698,4.5711,4.5714,4.5701,4.571,4.5697,4.5705,4.5697,4.5723,4.5716,4.5724,4.5721,4.5743,4.574,4.5819,4.5828,4.5756,4.5756,4.5757,0,4.5724,4.5738,4.5732,4.5737,4.5736,4.5745,4.5749,4.5733,4.5738,4.5737,4.5748,4.5756,4.5761,4.5777,4.5768,4.5774,4.5766,4.5793,4.5766,4.577,4.5764,4.5763,4.5764,4.5798,4.5799,4.5799,4.58,0,4.5788,4.5781,4.5787,4.5792,4.5797,4.58,4.5802,4.5808,4.579,4.5797,4.5806,4.581,4.5819,4.5826,4.583,4.5827,4.5811,4.5809,4.5814,4.5817,4.5821,4.5818,4.5737,4.5807,4.5806,4.5805,4.5805,4.5805,4.5835,4.5847,4.5844,4.5852,4.5851,4.5853,4.5863,4.5856,4.5863,4.5868,4.5859,4.587,4.5868,4.5872,4.5871,4.588,4.5868,4.5876,4.5877,4.5879,4.5882,4.5821,4.5881,4.5881,4.5881,4.588,4.588,0,4.5897,4.5894,4.5902,4.5904,4.591,4.5895,4.5896,4.5902,4.5912,4.5912,4.5918,4.5928,4.5935,4.5928,4.5934,4.5942,4.5935,4.5944,4.5942,4.5942,4.5893,4.5887,4.595,4.595,4.595,4.595,4.595,4.595,4.5929,4.5948,4.5941,4.5959,4.5956,4.5967,4.5968,4.597,4.5969,4.5982,4.5988,4.5983,4.598,4.5986,4.5992,4.5989,4.5992,4.6004,4.5999,4.5952,4.5946,4.5939,4.5933,4.6005,4.6005,4.6046,4.6047,4.6047]}]]